Find AE5RC

NORAD ID: 66765 Int'l Des: NNA 2025-276 Owner: ARKE Country: J operational
LEOCIRCULARRETROGRADESSO

实时位置

正在加载3D地球...

关于 AE5RC

正在加载描述...

即将过境

Passes for default location (London). Set your location on the main map for personalized predictions.

高度历史

Loading altitude history...

两行轨道根数

1 66765U 25276DD 26121.94817880 .00016257 00000-0 69990-3 0 9996
2 66765 97.4230 196.8181 0001704 103.1551 256.9876 15.22683609 23436
Epoch: May 1, 2026 • Age: 5 hours

当前状态

高度 501.0 km
速度 7.62 km/s
星下点 30.86°N, 99.29°E
发射日期 Nov 28, 2025
运行时间 0.4 years
类型 other

技术详情

分类 Payload
质量 10.00 kg
干质量 10.00 kg
总质量 10.00 kg
长度 0.30 m
直径 0.20 m
跨度 0.30 m
形状 Box+ 2 pan
制造商 ARKE
平台类型 Cubesat 6U
阶段状态 In Orbit
所有者/国家 ARKE/J

Most Searched